Location: Nairn
(57.5833°N, 3.8667°W)
Time: 16:22:08
(UTC+00:00)

MOZ.5/SAFIR/RUBIN 5/SL-8 - Pass Details

Date: 07 August 2020
Orbit: 677 x 706 km, 98.1° (Epoch: 22 September)

Event Time Altitude Azimuth Distance (km) Brightness Sun altitude
Exits shadow 01:36:57 20° 175° (S) 1,595 5.1 -14.4°
Maximum altitude 01:40:14 70° 256° (WSW) 752 3.8 -14.3°
Drops below altitude 10° 01:45:00 10° 341° (NNW) 2,177 7.1 -14.1°
Sets 01:47:16 0° 343° (NNW) 3,095 8.0 -14.0°
